{"data":{"norad_id":63761,"intl_designator":"2025-089L","name":"STARLINK-11660 [DTC]","alt_names":[],"object_type":"PAYLOAD","status":"ACTIVE","operator":null,"country":"US","launch_date":"2025-04-29","launch_site_code":"AFETR","launch_vehicle":null,"mission":null,"orbit_class":"UNKNOWN","rcs_meters":null,"size_class":null,"mass_kg":null,"dimensions":null,"purposes":["comms"],"wikipedia_slug":null,"has_3d_model":false,"image_url":null,"decayed_at":null,"tle_current":{"epoch":"2026-09-20T20:43:28.385472Z","epoch_age_seconds":118508,"freshness":"FRESH","line1":"1 63761U 25089L   26263.86352298  .00113434  00000+0  87437-3 0  9996","line2":"2 63761  43.0011 195.5874 0002166 283.2720  76.7906 15.70869608 80780","mean_motion":15.70869608,"eccentricity":0.0002166,"inclination_deg":43.0011,"raan_deg":195.5874,"arg_perigee_deg":283.272,"mean_anomaly_deg":76.7906,"bstar":0.00087437,"rev_number":8078,"period_min":91.668970655902,"perigee_km":354.95173471752,"apogee_km":357.86914066753,"semimajor_km":6734.5474376925,"source":"CELESTRAK","updated_at":"2026-09-21T09:00:35.094752Z"}}}